Regional Weather Roundup
Issued by NWS

Home | Current Version | Previous Version | Graphics & Text | Print | Product List | Glossary On
Versions: 1 2 3 4 5 6 7 8 9 10 11 12 13 14 15 16 17 18 19 20 21 22 23 24 25 26 27 28 29 30 31 32 33 34 35 36 37 38 39 40 41 42 43 44 45 46 47 48 49 50
000
ASUS43 KLMK 041402
RWRKY
KENTUCKY REGIONAL WEATHER ROUNDUP
NATIONAL WEATHER SERVICE LOUISVILLE KY
1000 AM EDT TUE AUG 04 2015

NOTE "FAIR" INDICATES FEW OR NO CLOUDS BELOW 12,000 FEET
WITH NO SIGNIFICANT WEATHER AND/OR OBSTRUCTIONS TO VISIBILITY.

KYZ001>023-026-027-061>063-070>075-041500-
WESTERN AND SOUTH CENTRAL KENTUCKY

CITY           SKY/WX    TMP DP  RH WIND       PRES   REMARKS
PADUCAH        SUNNY     83  74  74 SW3       29.98R
HENDERSON      PTSUNNY   79  72  78 CALM      29.98S
OWENSBORO      MOSUNNY   80  72  76 N3        30.00R
HOPKINSVILLE   MOSUNNY   83  73  71 SW5       30.00R
BOWLING GREEN  CLOUDY    82  71  69 VRB3      30.02R
GLASGOW        NOT AVBL
$$

KYZ024-025-028>034-038-045-046-053-041500-
NORTH CENTRAL KENTUCKY

CITY           SKY/WX    TMP DP  RH WIND       PRES   REMARKS
LOUISVILLE/SDF CLOUDY    81  68  64 VRB3      29.99R
LOUISVILLE/LOU PTSUNNY   80  66  62 VRB3      30.00R
FORT KNOX      PTSUNNY   76  70  82 NW2       30.00R
$$

KYZ035>037-039>044-047>052-055>060-089>105-041500-
NORTHEAST KENTUCKY

CITY           SKY/WX    TMP DP  RH WIND       PRES   REMARKS
LEXINGTON      PTSUNNY   79  70  74 W5        30.01R
COVINGTON      MOSUNNY   75  67  76 CALM      29.99S
FRANKFORT      PTSUNNY   78  70  76 NW3       30.00R
$$

KYZ054-064>069-076>088-106>120-041500-
SOUTHEAST KENTUCKY

CITY           SKY/WX    TMP DP  RH WIND       PRES   REMARKS
JACKSON        SUNNY     75  69  81 VRB5      30.03S
LONDON         PTSUNNY   80  69  69 SW6       30.04R
SOMERSET       NOT AVBL
MIDDLESBORO    PTSUNNY   73  69  86 CALM      30.06S
MONTICELLO     MOSUNNY   82  74  77 CALM      30.06R
$$



USA.gov is the U.S. government's official web portal to all federal, state and local government web resources and services.